This demonstration page uses our WeatherBlox Daily Observations layout. Learn more.

Left ArrowRight Arrow

Hourly Observations for May 18, 2021

Temp ( °F °C ) Dew Point ( °F °C ) Humidity (%) Winds ( mph kmh ) Pressure ( in mb ) Visibility ( mi km ) Precip ( " mm )
12:51 am 00:51 Clear 64 17.8 27 -2.8 25 25 NW 10 17 29.77 1008 10 16.0934 N/A
1:51 am 01:51 Clear 62 16.7 27 -2.8 26 26 NW 7 11 29.77 1008 10 16.0934 N/A
2:51 am 02:51 Clear 62 16.7 29 -1.7 29 29 NNW 3 6 29.76 1008 10 16.0934 N/A
3:51 am 03:51 Clear 60 15.6 27 -2.8 28 28 SSE 5 7 29.76 1008 10 16.0934 N/A
4:51 am 04:51 Clear 55 12.8 24 -4.4 30 30 N N/A 29.77 1008 10 16.0934 N/A
5:51 am 05:51 Sunny 57 13.9 25 -3.9 29 29 N N/A 29.78 1008 10 16.0934 N/A
6:51 am 06:51 Sunny 62 16.7 27 -2.8 26 26 SE 5 7 29.79 1009 10 16.0934 N/A
7:51 am 07:51 Sunny 70 21.1 30 -1.1 23 23 WSW 5 7 29.79 1009 10 16.0934 N/A
8:51 am 08:51 Sunny 76 24.4 36 2.2 23 23 NW 21 33 29.77 1008 10 16.0934 N/A
9:51 am 09:51 Sunny 80 26.7 35 1.7 20 20 NW 18 30 29.76 1008 10 16.0934 N/A
10:51 am 10:51 Sunny 82 27.8 33 0.6 17 17 W 18 30 29.74 1007 10 16.0934 N/A
11:51 am 11:51 Sunny 85 29.4 32 undefined 15 15 WNW 22 35 29.7 1006 10 16.0934 N/A
12:51 pm 12:51 Sunny 87 30.6 29 -1.7 12 12 NW 15 24 29.68 1005 10 16.0934 N/A
1:51 pm 13:51 Sunny 86 30 31 -0.6 14 14 W 15 24 29.66 1004 10 16.0934 N/A
2:51 pm 14:51 Mostly Sunny 89 31.7 32 undefined 13 13 WNW 21 33 29.63 1003 10 16.0934 N/A
3:51 pm 15:51 Sunny 89 31.7 33 0.6 14 14 WNW 22 35 29.63 1003 10 16.0934 N/A
4:51 pm 16:51 Sunny 84 28.9 33 0.6 16 16 WNW 18 30 29.66 1004 10 16.0934 N/A
5:51 pm 17:51 Sunny 85 29.4 34 1.1 16 16 WNW 22 35 29.66 1005 10 16.0934 N/A
6:51 pm 18:51 Sunny 82 27.8 34 1.1 18 18 NW 18 30 29.68 1005 10 16.0934 N/A
7:51 pm 19:51 Clear 78 25.6 36 2.2 22 22 NW 6 9 29.69 1005 10 16.0934 N/A
8:51 pm 20:51 Clear 76 24.4 36 2.2 23 23 NW 10 17 29.69 1005 10 16.0934 N/A
9:51 pm 21:51 Clear 74 23.3 34 1.1 23 23 NW 9 15 29.7 1006 10 16.0934 N/A
10:51 pm 22:51 Clear 73 22.8 34 1.1 24 24 NW 12 19 29.7 1006 10 16.0934 N/A
11:51 pm 23:51 Clear 73 22.8 34 1.1 24 24 NW 12 19 29.69 1006 10 16.0934 N/A

Powered by AerisWeather